Home   Weather   Livingston   Past weeks
Flag for USA

Past Weather in Livingston, Texas, USA — Yesterday and Last 2 Weeks

Now
80 °F

Passing clouds.


Feels Like: 83 °F
Forecast: 93 / 73 °F
Wind: No wind

Location: Angelina County Airport

Current Time: Sep 16, 2019 at 1:30:29 am

Latest Report: Sep 16, 2019 at 12:53 am


Visibility: 10 mi

Pressure: 30.00 "Hg

Humidity: 69%

Dew Point: 69 °F

Location of LivingstonLocation

Past Weather in Livingston — Graph

°F

Livingston Temperature Yesterday

Maximum temperature yesterday: 95 °F (at 2:53 pm)
Minimum temperature yesterday: 70 °F (at 5:53 am)
Average temperature yesterday: 83 °F

High & Low Weather Summary for the Past Weeks

 TemperatureHumidityPressure
High99 °F (Sep 5, 4:53 pm)97% (Sep 12, 3:53 am)30.16 "Hg (Sep 12, 3:53 am)
Low69 °F (Sep 8, 6:53 am)29% (Sep 6, 4:53 pm)29.90 "Hg (Sep 3, 3:53 pm)
Average82 °F68%30.03 "Hg
* Reported Aug 31 11:53 pm — Sep 15 11:53 pm, Livingston. Weather by CustomWeather, © 2019

Note: Actual official high and low records may vary slightly from our data, if they occured in-between our weather recording intervals... More about our weather records

Advertising

Livingston Weather History for the Previous 24 Hours

Scroll right to see more
 ConditionsComfort  
Time TempWeatherWind HumidityBarometerVisibility
11:53 pm
Sun, Sep 15
79 °FClear.No wind72%29.99 "Hg10 mi
10:53 pm81 °FPassing clouds.3 mph67%29.99 "Hg10 mi
9:53 pm84 °FPartly cloudy.No wind59%29.99 "Hg10 mi
8:53 pm83 °FPassing clouds.No wind63%29.97 "Hg10 mi
7:53 pm85 °FClear.No wind55%29.95 "Hg10 mi
6:53 pm92 °FScattered clouds.3 mph43%29.96 "Hg10 mi
5:53 pm95 °FSunny.8 mph37%29.96 "Hg10 mi
4:53 pm95 °FPassing clouds.12 mph37%29.96 "Hg10 mi
3:53 pm95 °FScattered clouds.9 mph37%29.97 "Hg10 mi
2:53 pm95 °FBroken clouds.8 mph40%29.99 "Hg10 mi
1:53 pm92 °FScattered clouds.7 mph43%30.02 "Hg10 mi
12:53 pm91 °FPassing clouds.8 mph44%30.04 "Hg10 mi
11:53 am92 °FPassing clouds.10 mph44%30.06 "Hg10 mi
10:53 am90 °FSunny.7 mph48%30.06 "Hg10 mi
9:53 am87 °FSunny.3 mph59%30.06 "Hg10 mi
8:53 am81 °FSunny.3 mph72%30.06 "Hg10 mi
7:53 am74 °FSunny.5 mph85%30.06 "Hg10 mi
6:53 am70 °FClear.No wind90%30.06 "Hg10 mi
5:53 am70 °FClear.No wind90%30.06 "Hg9 mi
4:53 am72 °FClear.No wind87%30.05 "Hg10 mi
3:53 am73 °FClear.No wind84%30.05 "Hg10 mi
2:53 am73 °FClear.3 mph84%30.06 "Hg10 mi
1:53 am75 °FClear.No wind76%30.06 "Hg10 mi
Weather by CustomWeather, © 2019

See weather overview